TimeCST,TemperatureF,Dew PointF,Humidity,Sea Level PressureIn,VisibilityMPH,Wind Direction,Wind SpeedMPH,Gust SpeedMPH,PrecipitationIn,Events,Conditions,WindDirDegrees,DateUTC
12:52 AM,23.0,18.0,81,30.12,10.0,South,12.7,-,N/A,,Overcast,170,2013-03-03 06:52:00
1:52 AM,23.0,19.0,85,30.13,10.0,SE,8.1,-,N/A,,Overcast,140,2013-03-03 07:52:00
2:52 AM,21.9,18.0,85,30.10,10.0,SE,9.2,-,N/A,,Overcast,140,2013-03-03 08:52:00
3:52 AM,19.0,16.0,88,30.09,9.0,SE,6.9,-,N/A,,Clear,140,2013-03-03 09:52:00
4:52 AM,19.9,17.1,89,30.08,8.0,SE,10.4,-,N/A,,Partly Cloudy,140,2013-03-03 10:52:00
6:52 AM,23.0,19.0,85,30.07,8.0,SSE,13.8,-,N/A,,Overcast,160,2013-03-03 12:52:00
7:52 AM,21.9,18.0,85,30.06,5.0,SE,13.8,-,N/A,,Clear,140,2013-03-03 13:52:00
8:52 AM,24.1,19.0,81,30.05,6.0,SE,11.5,-,N/A,,Haze,140,2013-03-03 14:52:00
9:52 AM,26.1,19.9,78,30.04,7.0,SSE,17.3,-,N/A,,Clear,150,2013-03-03 15:52:00
10:52 AM,28.9,21.9,75,30.03,8.0,SSE,18.4,-,N/A,,Clear,150,2013-03-03 16:52:00
11:52 AM,30.0,23.0,75,30.01,9.0,SE,19.6,-,N/A,,Clear,130,2013-03-03 17:52:00
12:52 PM,30.9,24.1,76,29.99,9.0,SE,21.9,-,N/A,,Clear,130,2013-03-03 18:52:00
1:52 PM,30.9,23.0,72,29.96,10.0,SE,23.0,-,N/A,,Clear,140,2013-03-03 19:52:00
2:52 PM,30.9,24.1,76,29.94,10.0,ESE,20.7,-,N/A,,Clear,120,2013-03-03 20:52:00
3:52 PM,30.0,23.0,75,29.93,10.0,ESE,19.6,-,N/A,,Clear,120,2013-03-03 21:52:00
4:52 PM,30.0,21.9,72,29.92,10.0,SE,20.7,-,N/A,,Partly Cloudy,130,2013-03-03 22:52:00
5:52 PM,28.9,21.0,72,29.91,10.0,SE,20.7,-,N/A,,Mostly Cloudy,130,2013-03-03 23:52:00
6:52 PM,27.0,21.0,78,29.92,10.0,SE,20.7,-,N/A,,Overcast,130,2013-03-04 00:52:00
7:52 PM,26.1,19.9,78,29.93,9.0,ESE,19.6,-,N/A,,Overcast,120,2013-03-04 01:52:00
8:52 PM,26.1,19.0,75,29.91,10.0,SE,20.7,27.6,N/A,,Overcast,130,2013-03-04 02:52:00
9:52 PM,25.0,19.0,78,29.93,4.0,SE,19.6,-,0.00,Snow,Light Snow,130,2013-03-04 03:52:00
10:02 PM,24.8,19.4,80,29.88,1.8,SE,18.4,-,0.00,Snow,Light Snow,140,2013-03-04 04:02:00
10:15 PM,24.8,19.4,80,29.88,1.0,SE,21.9,-,0.00,Snow,Light Snow,140,2013-03-04 04:15:00
10:35 PM,24.8,21.2,86,29.87,1.0,SE,20.7,-,0.00,Snow,Light Snow,130,2013-03-04 04:35:00
10:52 PM,24.1,21.0,88,29.91,1.0,SE,20.7,-,0.00,Snow,Light Snow,130,2013-03-04 04:52:00
11:02 PM,24.8,21.2,86,29.86,1.2,SE,23.0,-,0.00,Snow,Light Snow,130,2013-03-04 05:02:00
11:27 PM,24.8,21.2,86,29.85,1.2,SE,23.0,-,0.01,Snow,Light Snow,130,2013-03-04 05:27:00
11:52 PM,24.1,21.9,91,29.89,1.2,SE,24.2,31.1,0.01,Snow,Light Snow,130,2013-03-04 05:52:00